#timestamp,LO_Frequency,Hit,StdDev 
1532404815.7,286047000.7,N
1532404835.6,286047000.0,N
1532404855.4,286047000.5,N
1532404875.2,286047000.4,N
1532404895.1,286047000.2,N
1532404896.0,286047000.2,N
1532404915.8,286046999.9,N
1532404935.7,286047000.1,N
1532404955.5,286047000.0,N
1532404975.3,286047000.0,N
1532404995.2,286047000.1,N
1532405015.0,286047000.6,N
1532405015.9,286047000.6,N
1532405035.8,286046998.5,N
1532405055.6,286046998.6,N
1532405075.4,286047000.8,N
1532405095.3,286047001.2,N
1532405115.1,286047000.5,N
1532405135.8,286047000.0,N
1532405155.7,286047000.0,N
1532405175.7,286047001.0,N
1532405195.5,286047001.2,N
1532405215.3,286047000.9,N
1532405235.2,286047000.3,N
1532405255.0,286047000.0,N
1532405255.9,286047000.0,N
1532405275.8,286047002.8,Y
1532405295.6,286047002.1,P
1532405315.4,286047000.5,N
1532405335.3,286047000.6,N
1532405355.1,286046999.8,N
1532405375.9,286047000.0,N
1532405395.7,286047000.4,N
1532405415.5,286047000.1,N
1532405435.4,286047000.9,N
1532405455.2,286047001.2,N
1532405475.0,286046999.8,N
1532405475.9,286046999.8,N
1532405495.8,286047000.4,N
1532405515.6,286047000.6,N
1532405535.5,286046999.9,N
1532405555.3,286047000.0,N
1532405575.1,286047000.1,N
1532405595.9,286047002.8,Y
1532405615.7,286047002.3,P
1532405635.6,286047000.6,N
1532405655.4,286047002.5,N
1532405675.2,286047000.3,N
1532405695.1,286046999.8,N
1532405696.0,286046999.8,N
1532405715.8,286046999.9,N
1532405735.6,286047000.3,N
1532405755.5,286047002.7,N
1532405775.3,286047000.2,N
1532405795.2,286047000.0,N
1532405815.9,286047001.1,N
1532405835.7,286047001.0,N
1532405855.6,286047000.8,N
1532405875.4,286046999.0,N
1532405895.2,286046999.1,N
1532405915.1,286046998.5,N
1532405916.0,286046998.5,N
1532405935.8,286046998.8,N
1532405955.7,286046999.4,N
1532405975.5,286046996.9,N
1532405995.3,286046997.0,N
1532406015.2,286046996.7,N
1532406035.0,286046996.6,N
1532406035.9,286046996.6,N
1532406055.7,286046997.1,N
1532406075.6,286046997.7,N
1532406095.4,286046995.3,N
1532406115.3,286046997.6,N
1532406135.1,286046995.7,N
1532406155.8,286046995.5,N
1532406175.7,286046995.6,N
1532406195.5,286046996.0,N
1532406215.4,286046993.5,Y
1532406235.2,286046997.9,P
1532406255.0,286046997.8,P
1532406255.9,286046997.8,P
1532406275.8,286046995.1,Y
1532406295.6,286046999.5,P
1532406315.5,286046996.8,P
1532406335.3,286046996.6,P
1532406355.1,286046996.7,N
1532406375.9,286046997.9,N
1532406395.7,286046997.1,N
1532406415.5,286046999.0,N
1532406435.4,286046996.5,Y
1532406455.2,286046999.3,P
1532406475.1,286046998.7,N
1532406476.0,286046998.7,N
1532406495.8,286046999.5,N
1532406515.6,286046999.4,N
1532406535.5,286046999.2,N
1532406555.3,286046996.8,Y
1532406575.2,286047001.0,P
1532406595.9,286047000.3,N
1532406615.7,286047000.3,N
1532406635.6,286047000.6,N
1532406655.4,286047001.2,N
1532406675.2,286047000.8,N
1532406695.1,286046998.5,N
1532406696.0,286046998.5,N
1532406715.8,286047000.3,N
1532406735.7,286046999.9,N
1532406755.5,286047000.1,N
1532406775.3,286046999.9,N
1532406795.2,286046998.6,N
1532406815.0,286046998.6,N
1532406815.9,286046998.6,N
1532406835.8,286046998.4,N
1532406855.6,286046998.5,N
1532406875.4,286046998.1,N
1532406895.3,286046998.9,N
1532406915.1,286046998.9,N
1532406935.8,286046996.9,Y
1532406955.7,286046999.1,P
1532406975.5,286046998.7,P
1532406995.4,286046998.9,P
1532407015.2,286046999.5,N
1532407035.0,286046999.5,N
1532407035.9,286046999.5,N
1532407055.8,286046999.6,N
1532407075.6,286046996.6,Y
1532407095.5,286046999.4,P
1532407115.3,286046998.3,P
1532407135.1,286047001.2,N
1532407155.9,286046998.5,N
1532407175.7,286046998.2,N
1532407195.5,286046998.2,N
1532407215.4,286046998.7,N
1532407235.2,286046998.3,N
1532407255.0,286046998.2,N
1532407256.0,286046998.2,N
1532407275.8,286046998.3,N
1532407295.6,286046998.8,N
1532407315.5,286046998.2,N
1532407335.3,286046998.6,N
1532407355.1,286046998.2,N
1532407375.9,286046998.5,N
1532407395.7,286047001.2,N
1532407415.6,286046998.1,N
1532407435.4,286046998.8,N
1532407455.2,286046999.1,N
1532407475.1,286046999.5,N
1532407476.0,286046999.5,N
1532407495.8,286046999.0,N
1532407515.7,286046999.4,N
1532407535.5,286046998.5,N
1532407555.3,286046996.5,Y
1532407575.2,286046998.3,P
1532407595.0,286046998.1,P
1532407595.9,286046998.1,P
1532407615.7,286047000.5,N
1532407635.6,286047001.0,N
1532407655.4,286047000.6,N
1532407675.3,286046998.5,N
1532407695.1,286046999.4,N
1532407696.0,286046999.4,N
1532407715.8,286046999.3,N
1532407735.7,286046998.9,N
1532407755.5,286046998.3,N
1532407775.3,286046998.9,N
1532407795.2,286046998.3,N
1532407815.0,286046998.9,N
1532407815.9,286046998.9,N
1532407835.8,286046998.4,N
1532407855.6,286046998.2,N
1532407875.4,286046998.9,N
1532407895.3,286046998.4,N
1532407915.1,286046999.3,N
1532407935.8,286046998.3,N
1532407955.7,286046996.5,Y
1532407975.5,286046998.1,P
1532407995.4,286047000.9,N
1532408015.2,286047001.0,N
1532408035.0,286046998.1,N
1532408035.9,286046998.1,N
1532408055.8,286047001.2,N
1532408075.6,286047001.1,N
1532408095.4,286047001.2,N
1532408115.3,286047000.8,N
1532408135.1,286046998.1,N
1532408155.9,286047000.8,N
1532408175.7,286047000.6,N
1532408195.5,286046998.2,N
1532408215.4,286047000.6,N
1532408235.2,286047000.5,N
1532408255.0,286046999.9,N
1532408255.9,286046999.9,N
1532408275.8,286046999.7,N
1532408295.9,286047000.8,N
1532408315.7,286047000.6,N
1532408335.6,286047000.9,N
1532408355.4,286047000.7,N
1532408375.2,286047000.8,N
1532408395.1,286046998.1,N
1532408396.0,286046998.1,N
